Location: Stockholm
(59.3330°N, 18.0500°E)
Time: 05:00:04
(UTC+02:00)

NOAA 18 - Pass Details

Date: 03 April 2023
Orbit: 838 x 860 km, 98.9° (Epoch: 31 May)

Event Time Altitude Azimuth Distance (km) Brightness Sun altitude
Exits shadow 21:00:18 14° 118° (ESE) 2,204 6.7 -10.9°
Maximum altitude 21:04:32 39° 55° (NE) 1,286 6.0 -11.4°
Drops below altitude 10° 21:09:39 10° 349° (N) 2,511 8.3 -12.0°
Sets 21:12:10 0° 342° (NNW) 3,450 9.3 -12.2°
